www.pogodaiklimat.ru

Погода и климат >> Архив погоды >> Китай >> Хэйлунцзян >> Харбин


АРХИВ ПОГОДЫ в Харбине

Время (UTC), дата Ветер
(напр.,м/с)
 
Видим.   Явления Облачность Т
(С)
Тd
(С)
f
(%)
Тe
(С)
Тes
(С)
Комфортность P
(гПа)
Po
(гПа)
Тmin
(С)
Tmax
(С)
R
(мм)
R24
(мм)
S
(см)
06 12.06 В 1 11 км 8/8
[]
+26.6 +17.4 57 +31 +34 душно 1005.0 991.2 +13.4
09 12.06 ЮЗ 2 26 км 6/6 1000 м
[]
+27.5 +16.8 52 +31 +32 душно 1003.6 987.4
12 12.06 Ю 2 13 км 6/6 1000 м
[]
+23.1 +17.6 71 +28 +28 душно 1003.1 989.4
15 12.06 ЮВ 2 н/о дымка н/о +20.6 +17.6 83 +25 +25 комфорт 1002.1 985.6
18 12.06 ЮЗ 4 10 км н/о +23.4 +15.7 62 +28 +28 душно 1001.1 987.5 +28.1
21 12.06 Ю 2 9000 м н/о +20.5 +16.7 79 +24 +24 комфорт 999.8 983.3
00 13.06 ЮЗ 6 27 км 9/9
[]
+21.4 +16.8 75 +25 +26 комфорт 1000.6 986.9 0.4
03 13.06 ЮЗ 7 12 км {дождь} 10/10
[]
+22.7 +18.0 75 +28 +28 душно 1000.5 984.1
06 13.06 ЮЗ 5 н/о в посл. час дождь 10/10
[]
+20.8 +17.8 83 +25 +25 комфорт 999.8 986.1 +20.0
09 13.06 ЮЗ 2 16 км в посл. час дождь н/о +19.0 +15.3 79 +21 +21 комфорт 999.4 982.8
12 13.06 ЮЗ 2 10 км {дождь} 5/5
[]
+19.2 +17.3 89 +22 +22 комфорт 1000.3 986.5 1
15 13.06 З 2 16 км н/о +17.3 +15.6 90 +18 +18 по сезону 1000.8 984.1
18 13.06 Ю 2 14 км н/о +16.4 +14.9 91 +16 +16 по сезону 1001.1 987.3 +23.4
21 13.06 ЮЗ 4 н/о дымка н/о +17.8 +16.8 94 +18 +18 по сезону 1001.4 984.7
00 14.06 З 2 11 км 9/9 1500 м
[]
+19.6 +16.1 80 +22 +23 комфорт 1002.2 988.4
03 14.06 С 2 13 км 9/9 1500 м
[]
+18.9 +14.0 73 +20 +22 прохладно 1003.3 986.7
06 14.06 Ю 3 4500 м дымка {дождь} 10/10 1000 м
[]
+18.5 +16.3 87 +19 +19 холодно 1002.8 988.9 +15.2 0.2
09 14.06 С 3 6000 м сильн. дождь 10/10 1000 м
[]
+16.8 +14.3 85 +17 +17 холодно 1003.3 986.5
12 14.06 С 3 18 км слаб. дождь 10/10 1000 м
[]
+15.3 +14.3 94 +15 +15 холодно 1005.0 991.0 34
15 14.06 В 6 4500 м дождь ?/? +14.8 +13.5 92 +13 +13 холодно 1006.3 989.4
18 14.06 В 7 27 км слаб. дождь ?/? +13.5 +11.6 88 +11 +11 холодно 1006.7 992.7 +21.6 7
21 14.06 В 8 30 км в посл. час дождь ?/? +12.4 +10.0 85 +9 +9 очень
холодно
1008.5 991.4
00 15.06 СВ 6 30 км 9/9 1000 м
[]
+12.9 +9.2 78 +10 +11 очень
холодно
1010.6 996.4 1
03 15.06 В 7 30 км 8/8 600 м
[]
+17.1 +9.0 59 +16 +17 очень
холодно
1010.7 993.8
06 15.06 В 6 30 км 6/6 600 м
[]
+18.6 +8.8 53 +19 +21 холодно 1010.3 996.2 +12.2
09 15.06 С 4 30 км 8/8 1000 м
[]
+19.5 +7.9 47 +20 +21 прохладно 1009.9 993.2
12 15.06 Ю 1 30 км ясно +14.5 +10.3 76 +15 +15 холодно 1011.3 997.1
15 15.06 ЮВ 2 30 км ?/? +10.8 +9.2 90 +9 +9 очень
холодно
1012.4 995.1
18 15.06 С 1 30 км н/о +10.6 +7.8 83 +10 +10 холодно 1012.4 998.2 +20.1
21 15.06 С 2 30 км ?/? +12.5 +7.4 71 +12 +12 холодно 1013.3 996.1
00 16.06 СВ 3 30 км ясно +17.8 +7.8 52 +18 +26 прохладно 1013.4 999.3
03 16.06 В 3 30 км 3/3 1000 м
[]
+19.9 +7.0 43 +21 +32 комфорт 1012.6 995.9
06 16.06 СВ 4 30 км 8/8 1000 м
[]
+20.7 +6.6 40 +22 +24 комфорт 1011.2 997.1 +9.1
09 16.06 В 3 30 км ясно +21.6 +2.3 28 +21 +24 комфорт 1010.0 993.4
12 16.06 З 2 30 км ясно +14.2 +5.8 57 +14 +14 очень
холодно
1010.4 996.3
15 16.06 З 2 25 км ?/? +13.6 +6.2 61 +13 +13 холодно 1011.0 993.9
18 16.06 Ю 1 28 км н/о +10.7 +6.8 77 +10 +10 холодно 1010.6 996.5 +22.1
21 16.06 З 1 22 км ?/? +11.6 +7.7 77 +12 +12 холодно 1010.8 993.6
00 17.06 З 3 30 км 5/5
[]
+19.9 +6.6 42 +21 +25 комфорт 1010.0 996.0
03 17.06 ЮЗ 4 30 км 9/9 1000 м
[]
+21.6 +4.7 33 +22 +23 комфорт 1009.0 992.4
06 17.06 ЮЗ 5 30 км 8/8 1000 м
[]
+22.6 +5.5 33 +23 +24 комфорт 1007.6 993.6 +9.1
09 17.06 З 5 30 км 6/6 1000 м
[]
+25.0 +9.3 37 +26 +26 жарко 1005.4 989.1
12 17.06 В 5 30 км 10/10 1000 м
[]
+19.1 +13.5 70 +20 +20 по сезону 1007.2 993.3
15 17.06 С 2 28 км н/о +16.7 +13.2 80 +17 +17 прохладно 1007.0 990.2
18 17.06 С 3 30 км н/о +16.0 +13.5 85 +16 +16 по сезону 1007.2 993.3 +25.2
21 17.06 С 3 30 км н/о +15.2 +12.2 82 +14 +14 холодно 1007.8 990.9
00 18.06 С 5 30 км 1/1 1000 м
[]
+18.0 +12.0 68 +18 +22 прохладно 1008.5 994.5 0.0
03 18.06 С 4 30 км ясно +21.3 +11.9 55 +23 +36 комфорт 1008.1 991.5
06 18.06 С 3 30 км {дождь} 1/1 1000 м
[]
+23.7 +10.0 42 +25 +35 комфорт 1006.7 992.8 +14.9
09 18.06 С 2 30 км 3/3
[]
+24.9 +10.4 40 +26 +28 жарко 1005.5 989.1
12 18.06 ЮЗ 2 24 км слаб. дождь 3/3
[]
+18.8 +8.7 52 +20 +20 прохладно 1005.4 991.5
15 18.06 З 2 30 км слаб. дождь н/о +18.1 +8.9 55 +19 +19 по сезону 1004.9 988.2
18 18.06 З 2 30 км н/о +15.8 +9.0 64 +16 +16 по сезону 1003.6 989.8 +25.5
21 18.06 ЮЗ 3 30 км в посл. час дождь н/о +18.3 +7.4 49 +19 +19 по сезону 1002.3 985.6
00 19.06 В 4 30 км 10/10 1500 м
[]
+20.4 +12.4 60 +23 +23 комфорт 1001.8 988.0

 

Местоположение метеостанции Харбин (Хэйлунцзян, Китай): широта 45.75 долгота 126.76 высота над уровнем моря 143 м.

В архиве по умолчанию представлена погода в Харбине за последнюю неделю. Архивные данные за месяц целиком и за предыдущие месяцы, начиная с января 2011 года, Вы можете получить, выбрав интересующий диапазон дат из раскрывающегося списка и нажав кнопку "Ввод!".


*Определитесь, кто Вы:
робот инопланетянин человек

Внимание! Время в таблицах - всемирное. Для получения местного времени необходимо прибавить поправку, которая равна 8 ч.

Смотрите также архив погоды в соседних городах и на ближайших метеорологических станциях:

Погода в Шанчжи (Хэйлунцзян, Китай) (111 км)
Погода в Аньда (Хэйлунцзян, Китай) (132 км)
Погода в Тунхэ (Хэйлунцзян, Китай) (155 км)
Погода в Цянь Горлос (Гирин, Китай) (166 км)
Погода в Хайлуне (Хэйлунцзян, Китай) (187 км)
Погода в Чанчуне (Гирин, Китай) (239 км)
Погода в Муданьцзяне (Хэйлунцзян, Китай) (259 км)
Погода в Кэшане (Хэйлунцзян, Китай) (264 км)
Погода в Тайлае (Хэйлунцзян, Китай) (268 км)
Погода в Ичунь (Хэйлунцзян, Китай) (273 км)

Пояснения к столбцам:

Ветер - указаны скорость ветра в м/с - средняя за 10 мин, порывы в срок и между сроками (в фигурных скобках) и направление, откуда дует ветер: С - северный, СВ - северо-восточный, В - восточный, ЮВ - юго-восточный, Ю - южный, ЮЗ - юго-западный, З - западный, СЗ - северо-западный.
Видимость - горизонтальная дальность видимости в метрах или километрах. При видимости от 1 до 10 км при отсутствии осадков обычно наблюдается дымка, при ухудшении видимости до 1 км и менее - туман. В сухую погоду видимость может ухудшаться дымом, пылью или мглою.
Явления - указаны атмосферные явления, наблюдавшиеся в срок или в последний час перед сроком; фигурными скобками обозначены явления, наблюдавшиеся между сроками (за 1-3 часа до срока); квадратными скобками обозначены град или гололедные отложения с указанием их диаметра в мм.
Облачность - указаны через наклонную черту общая и нижняя облачность в баллах и высота нижней границы облаков в метрах; квадратными скобками обозначены формы облаков: Ci - перистые, Cs - перисто-слоистые, Cc - перисто-кучевые, Ac - высококучевые, As - высокослоистые, Sc - слоисто-кучевые, Ns - слоисто-дождевые, Cu - кучевые, Cb - кучево-дождевые. Подробнее классификацию облаков см. в Атласе облаков (PDF).
T - Температура воздуха - температура, измеренная на высоте 2 м над землей.
Td - Температура точки росы - температура, при понижении до которой содержащийся в воздухе водяной пар достигнет насыщения.
f - Относительная влажность воздуха - влажноcть воздуха, измеренная на высоте 2 м над землей.
Te - Эффективная температура - температура, которую ощущает одетый по сезону человек в тени. Характеристика душности погоды. При расчете учитывается влияние влажности воздуха и скорости ветра на теплоощущения человека.
Tes - Эффективная температура на солнце - температура, которую ощущает человек, с поправкой на солнечный нагрев. Характеристика знойности погоды. Зависит от высоты солнца над горизонтом, облачности и скорости ветра. Ночью, в пасмурную погоду, а также при ветре 12 м/с и более поправка равна нулю.
P - Атмосферное давление - приведенное к уровню моря атмосферное давление.
Po - Атмосферное давление - измеренное на уровне метеостанции атмосферное давление.
Tmin - Минимальная температура - минимум температуры воздуха на высоте 2 м над землей.
Tmax - Максимальная температура - максимум температуры воздуха на высоте 2 м над землей.
R - Количество осадков - Количество выпавших осадков за период времени, мм. При наведении курсора мыши на число - период времени, за который выпало указанное количество осадков.
R24 - Количество осадков - Количество выпавших осадков за 24 часа, мм.
S - Снежный покров - Высота снежного покрова, см. При наведении курсора мыши на число - состояние снежного покрова и степень покрытия местности в баллах.